Miscellaneous Local Product
Issued by NWS Hastings, NE

Home | Current Version | Previous Version | Graphics & Text | Print | Product List | Glossary On
Versions: 1 2 3 4 5 6 7 8 9 10 11 12 13 14 15 16 17 18 19 20 21 22 23 24 25 26 27 28 29 30 31 32 33 34 35 36 37 38 39 40 41 42 43 44 45 46 47 48 49 50
732
AXUS43 KGID 232302
MISGRI

GID CWA HOURLY WEATHER ROUNDUP
NATIONAL WEATHER SERVICE HASTINGS NE
600 PM CDT THU MAR 23 2017

NOTE: "FAIR" INDICATES FEW OR NO CLOUDS BELOW 12,000 FEET WITH NO
SIGNIFICANT WEATHER AND/OR OBSTRUCTIONS TO VISIBILITY.

...SOUTH CENTRAL NEBRASKA...

CITY           SKY/WX    TMP DP  RH WIND       PRES   REMARKS
GRAND ISLAND   SUNNY     73  58  59 S16G24    29.59F
HASTINGS       SUNNY     75  56  51 S14G31    29.59F
KEARNEY        MOSUNNY   77  54  44 S20G28    29.56F
ORD            CLOUDY    64  57  78 NE3       29.57R HAZE
YORK           PTSUNNY   72  55  56 S22G29    29.63F
AURORA         MOSUNNY   72  55  56 S18G24    29.60F
LEXINGTON      SUNNY     80  53  40 S23G32    29.51F
HOLDREGE       MOSUNNY   77  51  39 S26G32    29.53F
HEBRON         MOSUNNY   72  56  58 S21G32    29.63F

...NEBRASKA PANHANDLE...

CITY           SKY/WX    TMP DP  RH WIND       PRES   REMARKS
CHADRON        CLOUDY    57  42  57 N28G36    29.67R
ALLIANCE       SUNNY     66  40  38 N30G37    29.56S
SCOTTSBLUFF    CLOUDY    64  37  36 N18G28    29.59R
SIDNEY         SUNNY     74  27  17 E12       29.53S

...WESTERN AND NORTH CENTRAL NEBRASKA...

CITY           SKY/WX    TMP DP  RH WIND       PRES   REMARKS
VALENTINE      MOSUNNY   66  44  45 CALM      29.60R
AINSWORTH      SUNNY     61  51  70 S6        29.59F
ONEILL         CLOUDY    57  55  92 CALM      29.62S FOG
BROKEN BOW     SUNNY     67  31  26 NE9       29.55F
IMPERIAL       MOSUNNY   75  45  34 E15       29.48F
NORTH PLATTE   SUNNY     74  56  53 E7        29.53F
MCCOOK         PTSUNNY   83  48  29 S13       29.46F

...EASTERN NEBRASKA...

CITY           SKY/WX    TMP DP  RH WIND       PRES   REMARKS
NORFOLK        CLOUDY    61  51  70 SE10      29.62F
SO SIOUX CITY  CLOUDY    59  45  59 SE13      29.67S
TEKAMAH        PTSUNNY   67  48  50 SE15      29.63F
COLUMBUS       CLOUDY    64  55  72 S3        29.64F
ALBION         CLOUDY    65  56  70 SE14      29.59F
OMAHA EPPLEY   PTSUNNY   75  52  44 S18G28    29.66F
OFFUTT AFB     PTSUNNY   75  51  43 S17G25    29.66F
MILLARD        CLOUDY    76  54  45 S13G22    29.66S THUNDER
LINCOLN        CLOUDY    73  53  49 S15G24    29.65S
NEBRASKA CITY  PTSUNNY   75  44  33 S22G30    29.68F
BEATRICE       CLOUDY    73  55  52 S24G30    29.64F
FALLS CITY     MOSUNNY   79  52  38 S18G30    29.69F

...NORTHERN KANSAS...

CITY           SKY/WX    TMP DP  RH WIND       PRES   REMARKS
GOODLAND       SUNNY     85  15   7 S35G48    29.46F
HILL CITY      PTSUNNY   82  51  34 S28G44    29.53F
NORTON         CLEAR     81  45  28 SE25G31   29.51F
PHILLIPSBURG   SUNNY     84  46  26 S18G33    29.53F
HAYS             N/A     80  52  37 S31G44    29.56F
RUSSELL        SUNNY     81  51  35 S30G44    29.58F
CONCORDIA      CLOUDY    72  58  61 S21G35    29.64F
SALINA         PTSUNNY   78  57  48 S26G37    29.64F
TOPEKA         SUNNY     78  52  40 S23G31    29.74F



USA.gov is the U.S. government's official web portal to all federal, state and local government web resources and services.